www.pogodaiklimat.ru

Погода и климат >> Архив погоды >> Турция >> Маниса


ПОГОДА в Манисе

  • Прогноз погоды в Манисе
  • Монитор погоды в Манисе

АРХИВ ПОГОДЫ в Манисе

Время (UTC), дата Ветер
(напр.,м/с)
 
Видим.   Явления Облачность Т
(С)
Тd
(С)
f
(%)
Тe
(С)
Тes
(С)
Комфортность P
(гПа)
Po
(гПа)
Тmin
(С)
Tmax
(С)
R
(мм)
R24
(мм)
S
(см)
00 12.07 В 1
{4}
20 км ясно +21.4 +13.4 60 +24 +24 комфорт 1008.2 1000.0
03 12.07 штиль 0
{3}
20 км ясно +18.7 +13.8 73 +19 +19 1008.4 1000.2
06 12.07 СВ 1
{3}
20 км ясно +23.2 +11.6 48 +26 +35 жарко 1009.3 1001.1 +18.4
07 12.07 В 1 20 км 1/0
[Ac trans]
+24.6 +13.5 50 +27 +40 жарко 1009.3 1001.1
08 12.07 СВ 1 20 км ясно +25.8 +12.9 45 +28 +48 жарко 1009.5 1001.4
09 12.07 СВ 1
{4}
20 км ясно +26.6 +11.0 38 +28 +50 жарко 1009.4 1001.3
10 12.07 СВ 2 20 км 1/1 1000 м
[Cu hum]
+28.2 +5.6 24 +27 +47 жарко 1009.2 1001.1
11 12.07 СВ 2 20 км ясно +28.8 +7.8 27 +28 +48 жарко 1008.8 1000.7
12 12.07 СВ 2
{5}
20 км ясно +29.0 +8.5 28 +29 +47 жарко 1008.5 1000.4
13 12.07 СВ 2 20 км ясно +29.4 +7.8 26 +29 +42 жарко 1008.5 1000.4
14 12.07 СВ 2 20 км ясно +29.4 +8.3 27 +29 +38 жарко 1008.5 1000.4
15 12.07 СВ 2
{5}
20 км ясно +29.3 +8.8 28 +29 +33 жарко 1008.6 1000.5
16 12.07 С 1 20 км ясно +28.6 +8.2 28 +28 +30 жарко 1008.9 1000.7
17 12.07 СВ 1 20 км ясно +27.3 +8.6 31 +27 +27 жарко 1009.1 1000.9
21 12.07 В 1
{3}
20 км ясно +24.5 +7.0 33 +25 +25 комфорт 1009.9 1001.8
00 13.07 В 1
{3}
20 км ясно +23.9 +9.0 39 +25 +25 комфорт 1009.3 1001.2
03 13.07 штиль 0
{3}
20 км ясно +21.4 +9.9 48 +23 +23 комфорт 1009.3 1001.2
06 13.07 СВ 1
{3}
20 км ясно +24.1 +9.9 41 +25 +34 комфорт 1010.4 1002.3 +20.5
07 13.07 С 1 20 км ясно +24.7 +10.1 40 +26 +39 жарко 1010.2 1002.1
08 13.07 СВ 1 20 км ясно +26.5 +8.8 33 +27 +47 жарко 1010.1 1002.0
09 13.07 СВ 1
{3}
20 км ясно +27.6 +9.3 32 +28 +50 жарко 1009.7 1001.6
10 13.07 В 1 20 км 3/3 1000 м
[Cu med, cong]
+29.2 +10.2 31 +29 +47 жарко 1009.5 1001.4
11 13.07 В 1 20 км 3/3 1000 м
[Cu med, cong]
+30.0 +9.4 28 +30 +46 жарко 1008.7 1000.6
12 13.07 В 1
{3}
20 км 4/4 1110 м
[Cu med, cong]
+30.4 +7.5 24 +29 +42 жарко 1007.9 999.9
13 13.07 СВ 1 20 км 3/3 1000 м
[Cu med, cong]
+31.7 +6.6 21 +30 +42 жарко 1007.7 999.7
14 13.07 С 1 20 км 4/4 1000 м
[Cu med, cong]
+31.3 +8.2 24 +30 +36 жарко 1007.4 999.3
15 13.07 В 1
{4}
20 км 4/4 1110 м
[Cu med, cong]
+30.8 +7.2 23 +30 +33 жарко 1007.0 998.9
16 13.07 З 2 20 км 4/4 1000 м
[Cu med, cong]
+30.2 +12.0 33 +31 +32 жарко 1006.8 998.7
17 13.07 З 2 20 км ясно +28.8 +11.7 35 +30 +30 жарко 1006.9 998.8
18 13.07 ЮЗ 1
{4}
20 км ясно +27.3 +11.6 38 +28 +28 жарко 1007.0 998.9 +32.0
21 13.07 штиль 0
{1}
20 км ясно +22.9 +10.9 47 +25 +25 комфорт 1007.2 999.1
00 14.07 штиль 0
{1}
20 км ясно +20.5 +10.6 53 +22 +22 комфорт 1005.6 997.5
03 14.07 штиль 0
{4}
20 км 4/0
[Ac trans]
+19.7 +11.5 59 +21 +21 комфорт 1005.1 997.0
06 14.07 штиль 0
{4}
20 км 8/4 1110 м
[Cu med, cong Ac und]
+21.1 +11.7 55 +23 +26 комфорт 1005.1 997.0 +19.4
07 14.07 штиль 0 20 км 8/4 1000 м
[Cu med, cong Ac und]
+24.1 +11.7 46 +26 +31 жарко 1004.3 996.2
08 14.07 В 1 20 км 6/4 1000 м
[Cu med, cong Ac trans]
+25.9 +11.6 41 +27 +37 жарко 1003.8 995.7
09 14.07 С 1
{2}
20 км 6/4 1110 м
[Cu med, cong Ac trans]
+27.3 +12.4 40 +29 +40 жарко 1003.2 995.1
10 14.07 С 2 20 км 6/4 1000 м
[Cu med, cong Ac trans]
+27.0 +12.5 41 +29 +39 жарко 1002.7 994.6
11 14.07 С 1 20 км 8/5 1000 м
[Cu med, cong Ac und]
+27.6 +12.7 40 +29 +36 жарко 1001.9 993.8
12 14.07 ЮЗ 1
{8}
8000 м гроза, ливневой дождь 9/6 900 м
[Cb cap Ac As]
+20.1 +18.2 89 +24 +28 комфорт 1004.5 996.3 3
13 14.07 Ю 1 8000 м гроза, ливневой дождь 9/6 600 м
[Cb cap Ac As]
+18.4 +17.3 93 +21 +24 комфорт 1005.6 997.3
14 14.07 В 1 10 км гроза, ливневой дождь 9/6 600 м
[Cb cap Ac As]
+18.8 +17.7 93 +22 +24 комфорт 1003.9 995.7
15 14.07 штиль 0
{4}
20 км в посл. час гроза 8/5 1110 м
[Cu med, cong Ac und]
+19.0 +17.6 92 +20 +22 1004.4 996.2
16 14.07 штиль 0 20 км 4/3 1000 м
[Cu hum Ac trans]
+21.3 +19.0 87 +26 +27 душно 1004.3 996.1
17 14.07 С 1 20 км 3/3 1000 м
[Cu hum]
+20.2 +17.4 84 +25 +25 комфорт 1004.9 996.7
18 14.07 штиль 0
{4}
20 км {гроза} ясно +19.4 +17.3 88 +21 +21 комфорт 1005.6 997.4 +28.6 15
21 14.07 З 1
{1}
20 км ясно +18.2 +16.6 90 +20 +20 1006.4 998.2
00 15.07 штиль 0
{1}
20 км ясно +18.5 +16.8 90 +19 +19 1006.3 998.0
03 15.07 штиль 0 20 км ясно +17.7 +16.7 94 +18 +18 1007.1 998.8
06 15.07 штиль 0
{2}
20 км 9/5 1050 м
[Cu med, cong Ac As]
+19.0 +17.4 90 +20 +23 1008.3 1000.0 +17.5
08 15.07 СВ 1 20 км 6/6 1000 м
[Cu med, cong]
+23.1 +16.7 67 +28 +36 душно 1008.1 999.9
09 15.07 С 1
{3}
20 км 5/5 1110 м
[Cu med, cong]
+24.2 +16.3 61 +28 +39 душно 1008.4 1000.2
10 15.07 штиль 0 20 км 3/3 1000 м
[Cu hum]
+25.2 +14.7 52 +28 +47 жарко 1008.4 1000.2
11 15.07 С 1 20 км 3/3 1000 м
[Cu hum]
+26.7 +14.1 46 +29 +46 жарко 1007.9 999.7
12 15.07 штиль 0
{3}
20 км 3/3 1110 м
[Cu hum]
+28.2 +12.8 39 +30 +46 жарко 1007.2 999.0
13 15.07 штиль 0 20 км 5/5 1000 м
[Cu med, cong]
+28.4 +14.2 42 +31 +39 душно 1006.6 998.5
14 15.07 З 1 20 км 3/3 1000 м
[Cu hum]
+29.1 +13.2 38 +31 +38 жарко 1006.2 998.1
15 15.07 З 1
{3}
20 км 4/4 1110 м
[Cu hum]
+29.2 +14.5 41 +31 +35 жарко 1006.2 998.1
16 15.07 З 1 20 км 9/0
[As trans]
+27.3 +13.2 42 +29 +30 жарко 1006.4 998.2
17 15.07 З 1 20 км 3/0
[Ac As]
+26.6 +13.7 45 +29 +29 жарко 1006.7 998.5
18 15.07 штиль 0
{4}
20 км ясно +24.8 +13.7 50 +27 +27 жарко 1007.2 999.0 +29.8
21 15.07 штиль 0
{1}
20 км ясно +21.7 +14.9 65 +25 +25 комфорт 1007.8 999.6
00 16.07 штиль 0
{1}
20 км ясно +20.0 +15.3 74 +22 +22 комфорт 1007.0 998.9
03 16.07 штиль 0 20 км ясно +18.7 +15.5 82 +20 +20 1007.3 999.2
06 16.07 СВ 1
{2}
20 км ясно +23.0 +14.3 58 +27 +35 душно 1007.1 999.0 +18.1
07 16.07 СВ 1 20 км ясно +24.7 +13.6 50 +27 +41 жарко 1006.9 998.8
08 16.07 СВ 1 20 км ясно +25.7 +15.1 52 +29 +48 душно 1006.4 998.3
09 16.07 СВ 1
{3}
20 км 3/3 1110 м
[Cu med, cong]
+26.7 +14.8 48 +29 +45 жарко 1005.9 997.8
10 16.07 С 1 20 км 3/3 1000 м
[Cu med, cong]
+28.2 +13.6 41 +30 +47 жарко 1005.6 997.5
11 16.07 штиль 0 20 км 3/3 1000 м
[Cu med, cong]
+29.4 +14.3 40 +31 +50 жарко 1004.9 996.8
12 16.07 СВ 1
{3}
20 км 3/3 1110 м
[Cu med, cong]
+30.1 +11.9 33 +31 +46 жарко 1004.4 996.3
13 16.07 СВ 1 20 км 3/3 1000 м
[Cu med, cong]
+31.2 +10.9 29 +31 +43 жарко 1003.5 995.4
14 16.07 СВ 1 20 км ясно +31.8 +10.4 27 +32 +42 жарко 1003.1 995.0
15 16.07 штиль 0
{3}
20 км ясно +31.3 +8.8 25 +30 +36 жарко 1002.5 994.4
16 16.07 штиль 0 20 км ясно +31.2 +9.3 26 +31 +33 жарко 1002.4 994.3
17 16.07 штиль 0 20 км ясно +28.9 +9.0 29 +29 +29 жарко 1002.2 994.1
18 16.07 В 1
{3}
20 км ясно +27.6 +13.8 43 +30 +30 жарко 1002.9 994.8 +32.3
21 16.07 В 1
{3}
20 км 5/5 1110 м
[Cu med, cong]
+26.1 +12.8 44 +28 +28 жарко 1003.5 995.5
00 17.07 штиль 0
{3}
20 км 5/5 1110 м
[Cu med, cong]
+23.9 +14.6 56 +27 +27 жарко 1002.4 994.4
03 17.07 В 2
{4}
20 км {ливн. осадки} 9/5 1110 м
[Cu med, cong Ac As]
+23.2 +15.8 63 +28 +28 душно 1002.2 994.2
06 17.07 В 1
{4}
20 км {ливн. осадки} 9/5 1110 м
[Cu med, cong Ac As]
+21.7 +16.3 71 +25 +27 комфорт 1003.6 995.5 +20.5 0.4
07 17.07 В 2 20 км 6/4 1000 м
[Cu med, cong Ac und]
+23.1 +16.7 67 +28 +34 душно 1003.4 995.3
08 17.07 В 2 20 км 6/4 1000 м
[Cu med, cong Ac trans]
+23.8 +17.1 66 +28 +36 душно 1003.3 995.2
09 17.07 СВ 2
{5}
20 км 6/4 1110 м
[Cu med, cong Ac trans]
+25.4 +17.1 60 +29 +38 душно 1003.2 995.1
10 17.07 В 2 20 км 6/4 1000 м
[Cu med, cong Ac trans]
+26.2 +17.4 58 +30 +41 душно 1003.1 995.1
11 17.07 В 1 20 км 8/4 1000 м
[Cu med, cong Ac und]
+26.3 +17.2 57 +30 +37 душно 1003.0 994.9
12 17.07 СВ 1
{5}
20 км 6/4 1110 м
[Cu med, cong Ac trans]
+29.1 +17.6 50 +33 +44 очень
душно
1002.2 994.2
13 17.07 СВ 1 20 км 6/4 1000 м
[Cu med, cong Ac trans]
+28.7 +16.3 47 +32 +40 душно 1002.0 994.0
14 17.07 СВ 2 20 км 6/4 1000 м
[Cu med, cong Ac trans]
+28.1 +16.1 48 +31 +36 душно 1002.3 994.2
15 17.07 С 2
{5}
20 км 6/4 1110 м
[Cu med, cong Ac trans]
+28.1 +16.4 49 +32 +34 душно 1002.2 994.2
16 17.07 СВ 1 20 км 6/4 1000 м
[Cu med, cong Ac trans]
+27.6 +16.3 50 +31 +32 душно 1002.9 994.8
17 17.07 СВ 1 20 км 6/4 1000 м
[Cu med, cong Ac trans]
+26.3 +15.4 51 +29 +29 жарко 1003.7 995.6
18 17.07 В 1
{5}
20 км 6/4 1110 м
[Cu med, cong Ac trans]
+25.8 +16.1 55 +29 +29 душно 1004.2 996.1 +29.7
21 17.07 В 1
{3}
20 км 8/4 1110 м
[Cu med, cong Ac und]
+24.2 +14.9 56 +27 +27 жарко 1005.8 997.7
00 18.07 В 2
{4}
20 км 4/3 1110 м
[Cu med, cong Ac trans]
+22.8 +14.9 61 +27 +27 душно 1006.0 997.9
03 18.07 В 1
{4}
20 км ясно +22.2 +14.4 61 +25 +25 комфорт 1006.8 998.7
06 18.07 В 1
{4}
20 км ясно +23.8 +14.8 57 +27 +35 жарко 1007.8 999.7 +22.1
07 18.07 В 1 20 км ясно +25.6 +14.7 51 +28 +43 жарко 1008.1 1000.0
08 18.07 СВ 1 20 км ясно +26.8 +13.8 45 +29 +47 жарко 1008.4 1000.3
09 18.07 СВ 2
{4}
20 км 3/3 1110 м
[Cu med, cong]
+27.9 +14.1 43 +30 +44 жарко 1008.3 1000.2
10 18.07 СВ 1 20 км 3/3 1000 м
[Cu med, cong]
+28.2 +13.2 40 +30 +46 жарко 1008.2 1000.1
11 18.07 СВ 1 20 км 4/4 1000 м
[Cu med, cong]
+29.2 +13.3 38 +31 +44 жарко 1008.0 999.9
12 18.07 В 1
{5}
20 км 4/4 1110 м
[Cu med, cong]
+30.5 +14.5 38 +33 +45 душно 1007.7 999.6
13 18.07 С 1 20 км 4/4 1000 м
[Cu med, cong]
+30.8 +13.0 34 +32 +41 жарко 1007.5 999.4
14 18.07 С 1 20 км 4/4 1000 м
[Cu med, cong]
+30.8 +13.0 34 +32 +38 жарко 1007.5 999.4
15 18.07 СВ 1
{4}
20 км 1/1 1110 м
[Cu hum]
+31.1 +13.3 34 +32 +37 жарко 1007.2 999.1
17 18.07 СВ 1 20 км ясно +28.8 +12.1 36 +30 +30 жарко 1008.2 1000.1
18 18.07 СВ 1
{4}
20 км ясно +27.6 +11.5 37 +29 +29 жарко 1008.9 1000.8 +31.3

 

Местоположение метеостанции Маниса (Турция): широта 38.62 долгота 27.43 высота над уровнем моря 71 м.

В архиве по умолчанию представлена погода в Манисе за последнюю неделю. Архивные данные за месяц целиком и за предыдущие месяцы, начиная с января 2011 года, Вы можете получить, выбрав интересующий диапазон дат из раскрывающегося списка и нажав кнопку "Ввод!".


*Определитесь, кто Вы:
робот инопланетянин человек

Внимание! Время в таблицах - всемирное. Для получения местного времени необходимо прибавить поправку, которая равна 2 ч.

Смотрите также архив погоды в соседних городах и на ближайших метеорологических станциях:

Погода в Измире (Турция) (31 км)
Погода в Измир / Сигли (Турция) (38 км)
Погода в Измир аэропорту (Турция) (46 км)
Погода в Акхисаре (Турция) (49 км)
Погода в Дикили (Турция) (68 км)
Погода в Кушадасы (Турция) (85 км)
Погода в Митилини (Греция) (88 км)
Погода в Айдыне (Турция) (93 км)
Погода в Айвалыке (Турция) (99 км)
Погода в Чешме (Турция) (105 км)

Пояснения к столбцам:

Ветер - указаны скорость ветра в м/с - средняя за 10 мин, порывы в срок и между сроками (в фигурных скобках) и направление, откуда дует ветер: С - северный, СВ - северо-восточный, В - восточный, ЮВ - юго-восточный, Ю - южный, ЮЗ - юго-западный, З - западный, СЗ - северо-западный.
Видимость - горизонтальная дальность видимости в метрах или километрах. При видимости от 1 до 10 км при отсутствии осадков обычно наблюдается дымка, при ухудшении видимости до 1 км и менее - туман. В сухую погоду видимость может ухудшаться дымом, пылью или мглою.
Явления - указаны атмосферные явления, наблюдавшиеся в срок или в последний час перед сроком; фигурными скобками обозначены явления, наблюдавшиеся между сроками (за 1-3 часа до срока); квадратными скобками обозначены град или гололедные отложения с указанием их диаметра в мм.
Облачность - указаны через наклонную черту общая и нижняя облачность в баллах и высота нижней границы облаков в метрах; квадратными скобками обозначены формы облаков: Ci - перистые, Cs - перисто-слоистые, Cc - перисто-кучевые, Ac - высококучевые, As - высокослоистые, Sc - слоисто-кучевые, Ns - слоисто-дождевые, Cu - кучевые, Cb - кучево-дождевые. Подробнее классификацию облаков см. в Атласе облаков (PDF).
T - Температура воздуха - температура, измеренная на высоте 2 м над землей.
Td - Температура точки росы - температура, при понижении до которой содержащийся в воздухе водяной пар достигнет насыщения.
f - Относительная влажность воздуха - влажноcть воздуха, измеренная на высоте 2 м над землей.
Te - Эффективная температура - температура, которую ощущает одетый по сезону человек в тени. Характеристика душности погоды. При расчете учитывается влияние влажности воздуха и скорости ветра на теплоощущения человека.
Tes - Эффективная температура на солнце - температура, которую ощущает человек, с поправкой на солнечный нагрев. Характеристика знойности погоды. Зависит от высоты солнца над горизонтом, облачности и скорости ветра. Ночью, в пасмурную погоду, а также при ветре 12 м/с и более поправка равна нулю.
P - Атмосферное давление - приведенное к уровню моря атмосферное давление.
Po - Атмосферное давление - измеренное на уровне метеостанции атмосферное давление.
Tmin - Минимальная температура - минимум температуры воздуха на высоте 2 м над землей.
Tmax - Максимальная температура - максимум температуры воздуха на высоте 2 м над землей.
R - Количество осадков - Количество выпавших осадков за период времени, мм. При наведении курсора мыши на число - период времени, за который выпало указанное количество осадков.
R24 - Количество осадков - Количество выпавших осадков за 24 часа, мм.
S - Снежный покров - Высота снежного покрова, см. При наведении курсора мыши на число - состояние снежного покрова и степень покрытия местности в баллах.